Regional Weather Roundup
Issued by NWS Jackson, KY

Home | Current Version | Previous Version | Text Only | Print | Product List | Glossary Off
Versions: 1 2 3 4 5 6 7 8 9 10 11 12 13 14 15 16 17 18 19 20 21 22 23 24 25 26 27

000
ASUS43 KJKL 232010
RWRJKL

EAST KENTUCKY HOURLY WEATHER ROUNDUP
NATIONAL WEATHER SERVICE JACKSON KY
300 PM EST MON JAN 23 2017

NOTE: "FAIR" INDICATES FEW OR NO CLOUDS BELOW 12,000 FEET WITH
NO SIGNIFICANT WEATHER AND/OR OBSTRUCTIONS TO VISIBILITY.

* THESE REPORTS ARE NOT UNDER NWS QUALITY CONTROL AND MAY NOT
  REPORT WEATHER SUCH AS PRECIPITATION AND FOG.

KYZ079-080-083-085-087-088-110-112-115-119-120-232100
...EASTERN KENTUCKY...

CITY           SKY/WX    TMP DP  RH WIND       PRES   REMARKS
JACKSON        LGT RAIN  49  46  90 MISG      29.43R FOG
LONDON         CLOUDY    48  44  86 NW12G21   29.47R
SOMERSET*      DRIZZLE   46  46 100 NW15G24   29.54R
MONTICELLO*    LGT RAIN  48  46  93 NW14G24   29.55R
WILLIAMSBURG*  CLOUDY    48  48 100 NW10G17   29.48R
MIDDLESBORO*   DRIZZLE   50  47  90 NW23G30   29.45R
HARLAN APT*    CLOUDY    50  46  87 W7        29.41R
PIKE CO APT*   RAIN      48  48 100 N8        29.39R
BIG SANDY APT* DRIZZLE   49  49 100 N5        29.41R
MOREHEAD APT*  MOCLDY    48  46  93 N10       29.47R FOG
ASHLAND*       PTSUNNY   48  46  93 NE5       29.43S
$$

KYZ035-036-041-042-044-050-067-078-099-232100
...CENTRAL KENTUCKY...

CITY           SKY/WX    TMP DP  RH WIND       PRES   REMARKS
MT STERLING*   CLOUDY    46  46 100 N10G16    29.50R
FLEMING/MASON* CLOUDY    48  48  97 N8G17     29.49R FOG
DANVILLE*      DRIZZLE   45  45 100 NW17G24   29.54R
LEXINGTON      LGT RAIN  48  46  93 NW12      29.52R FOG
FRANKFORT      CLOUDY    48  44  86 NW10G18   29.54R FOG
LOUISVILLE     CLOUDY    48  42  80 NW16      29.60S
LEBANON*       CLOUDY    46  45  93 NW14G21   29.57R FOG
GLASGOW*       CLOUDY    46  44  95 NW8G16    29.63R FOG
BOWLING GREEN  CLOUDY    46  39  76 NW14G23   29.65R
$$

KYZ091>093-OHZ055-061-077-WVZ005-015-034-035-042-232100
...SOUTHERN OHIO/WEST VIRGINIA...

CITY           SKY/WX    TMP DP  RH WIND       PRES   REMARKS
COVINGTON      CLOUDY    47  45  93 NW16      29.53S FOG
COLUMBUS       LGT RAIN  50  45  83 NE12G24   29.51R
DAYTON         LGT RAIN  44  43  96 N12       29.56S
WILMINGTON     LGT RAIN  49  47  93 N14       29.50S FOG
HUNTINGTON     LGT RAIN  48  45  89 N7        29.43R VSB 1
CHARLESTON     CLOUDY    47  42  83 NE13G20   29.41R
BECKLEY        CLOUDY    44  40  85 NE6       29.36S FOG
BLUEFIELD      LGT RAIN  42  41  96 N13       29.35R FOG
LOGAN CO APT*  CLOUDY    46  46 100 CALM      29.38R
$$

VAZ002-007-008-TNZ017-027-036-066-071-232100
...SOUTHWEST VIRGINIA/EAST TENNESSEE...

CITY           SKY/WX    TMP DP  RH WIND       PRES   REMARKS
WISE*          DRIZZLE   46  46 100 NW7       29.38R
JONESVILLE*    MOCLDY    54  48  82 NW9       29.41R
ABINGDON*      DRIZZLE   49  47  90 NW3       29.36R
BRISTOL        LGT RAIN  52  46  80 NW3       29.36R
MORRISTOWN*    CLOUDY    54  50  87 NW10G17   29.39R FOG
SEVIERVILLE*   CLOUDY    52  48  87 W8        29.41R
KNOXVILLE      CLOUDY    55  47  74 NW12G20   29.43R
LAFOLLETTE*    CLOUDY    52  48  87 VRB6      29.48R FOG
OAK RIDGE      PTSUNNY   57  46  66 N9        29.47R
CROSSVILLE     CLOUDY    44  43  96 NW14G26   29.53S FOG
NASHVILLE      CLOUDY    48  39  71 NW12      29.67R
$$

...KEY TO REMARKS...
VSB - VISIBILITY IN MILES
WCI - WIND CHILL INDEX
HX  - HEAT INDEX

$$




USA.gov is the U.S. government's official web portal to all federal, state and local government web resources and services.